Location: Tel Aviv
(32.0670°N, 34.7670°E)
Time: 00:52:48
(UTC+02:00)

Transit 4A - Pass Details

Date: 14 December 2023
Orbit: 869 x 974 km, 66.8° (Epoch: 23 February)

Event Time Altitude Azimuth Distance (km) Brightness Sun altitude
Rises 17:49:04 0° 225° (SW) 3,654 12.2 -14.8°
Reaches altitude 10° 17:51:47 10° 232° (SW) 2,711 11.5 -15.3°
Maximum altitude 17:57:42 40° 301° (WNW) 1,390 9.2 -16.5°
Drops below altitude 10° 18:03:37 10° 10° (N) 2,698 10.1 -17.7°
Enters shadow 18:05:05 - 15° (NNE) 3,196 10.4 -18.0°
